Location: Brachbach
(49.1847°N, 9.7240°E)
Time: 21:11:52
(UTC+00:00)

NOAA 18 - Visible Passes

Search period start: 16 March 2026 00:00
Search period end: 26 March 2026 00:00
Orbit: 836 x 858 km, 98.8° (Epoch: 16 March)

Date Brightness Start Highest point End Pass type
(mag) Time Alt. Az. Time Alt. Az. Time Alt. Az.
16 Mar 6.6 20:14:09 24° NE 20:14:09 24° NE 20:17:25 10° N visible
16 Mar 6.9 21:56:04 28° NNW 21:56:04 28° NNW 21:58:41 10° NNW visible
17 Mar 6.8 20:00:52 20° NE 20:00:52 20° NE 20:04:08 10° N visible
17 Mar 6.7 21:42:47 33° NNW 21:42:47 33° NNW 21:45:43 10° NNW visible
18 Mar 6.9 19:47:36 17° NE 19:47:36 17° NE 19:50:47 10° NNE visible
18 Mar 6.4 21:29:30 37° NNW 21:29:30 37° NNW 21:32:43 10° NNW visible
18 Mar 7.9 23:11:25 11° NW 23:11:25 11° NW 23:11:47 10° NW visible
19 Mar 7.1 19:34:19 14° NE 19:34:34 14° NE 19:37:17 10° NNE visible
19 Mar 6.2 21:16:13 40° N 21:16:13 40° N 21:19:41 10° N visible
19 Mar 7.7 22:58:08 14° NW 22:58:08 14° NW 22:59:20 10° NW visible
20 Mar 7.2 19:21:02 11° ENE 19:21:47 11° NE 19:23:29 10° NNE visible
20 Mar 6.1 21:02:57 40° NNE 21:02:57 40° NNE 21:06:36 10° N visible
20 Mar 7.5 22:44:51 18° NW 22:44:51 18° NW 22:46:41 10° NW visible
21 Mar 6.1 20:49:40 38° NNE 20:49:40 38° NNE 20:53:29 10° N visible
21 Mar 7.2 22:31:35 22° NW 22:31:35 22° NW 22:33:56 10° NNW visible
22 Mar 6.2 20:36:23 33° NE 20:36:23 33° NE 20:40:21 10° N visible
22 Mar 7.0 22:18:18 27° NW 22:18:18 27° NW 22:21:06 10° NNW visible
23 Mar 6.3 20:23:07 29° NE 20:23:07 29° NE 20:27:10 10° N visible
23 Mar 6.6 22:05:01 33° NW 22:05:01 33° NW 22:08:13 10° NNW visible
24 Mar 6.5 20:09:50 24° NE 20:09:50 24° NE 20:13:56 10° N visible
24 Mar 6.3 21:51:44 40° NW 21:51:44 40° NW 21:55:17 10° NNW visible
25 Mar 6.7 19:56:33 20° ENE 19:56:49 20° NE 20:00:38 10° N visible
25 Mar 6.0 21:38:28 47° NNW 21:38:28 47° NNW 21:42:18 10° NNW visible
25 Mar 7.8 23:20:22 11° WNW 23:20:22 11° WNW 23:20:44 10° WNW visible
